Regional Weather Roundup
Issued by NWS

Home | Current Version | Previous Version | Graphics & Text | Print | Product List | Glossary On
Versions: 1 2 3 4 5 6 7 8 9 10 11 12 13 14 15 16 17 18 19 20 21 22 23 24 25 26 27 28 29 30 31 32 33 34 35 36 37 38 39 40 41 42 43 44 45 46 47 48 49 50
000
ASUS43 KMKX 171211
RWRWI

WISCONSIN REGIONAL WEATHER ROUNDUP
NATIONAL WEATHER SERVICE MILWAUKEE/SULLIVAN WI
600 AM CST FRI NOV 17 2017

NOTE: "FAIR" INDICATES FEW OR NO CLOUDS BELOW 12,000 FEET WITH NO
SIGNIFICANT WEATHER AND/OR OBSTRUCTIONS TO VISIBILITY.

WIZ001-002-006>008-014>016-023>028-171300-
NORTHWEST WISCONSIN

CITY           SKY/WX    TMP DP  RH WIND       PRES   REMARKS
SUPERIOR ARPT  CLOUDY    34  27  75 S7        29.76F WCI  28
6HR MIN TEMP:  31; 6HR MAX TEMP:  34;

ASHLAND        CLOUDY    34  26  72 S10       29.81F WCI  26
6HR MIN TEMP:  32; 6HR MAX TEMP:  35;

HAYWARD        CLOUDY    33  26  75 SE17G24   29.79F WCI  22
6HR MIN TEMP:  32; 6HR MAX TEMP:  33; 6HR PCP: TRACE;

SIREN          CLOUDY    34  28  79 S14G21    29.76F WCI  24
6HR MIN TEMP:  33; 6HR MAX TEMP:  34;

CUMBERLAND     CLOUDY    32  27  80 S21       29.78F WCI  20
RICE LAKE      CLOUDY    33  28  83 SE16G25   29.82F WCI  22
6HR MIN TEMP:  32; 6HR MAX TEMP:  33;

CHETEK         CLOUDY    33  28  83 SE16G25   29.82F WCI  22
6HR MIN TEMP:  32; 6HR MAX TEMP:  33;

LADYSMITH      CLOUDY    33  28  82 SE13G24   29.86F WCI  24
6HR MIN TEMP:  32; 6HR MAX TEMP:  33;

EAU CLAIRE     CLOUDY    34  27  75 SE14G28   29.82F WCI  25
6HR MIN TEMP:  33; 6HR MAX TEMP:  34;

MENOMONIE      CLOUDY    35  29  79 SE15G21   29.83S WCI  25
6HR MIN TEMP:  33; 6HR MAX TEMP:  35;

NEW RICHMOND   CLOUDY    35  27  74 SE16G22   29.79R WCI  25
6HR MIN TEMP:  32; 6HR MAX TEMP:  35;

OSCEOLA        CLOUDY    36  29  76 SE13G23   29.79S WCI  27
6HR MIN TEMP:  33; 6HR MAX TEMP:  36;

$$

WIZ003>005-009-010-017-018-171300-
NORTH CENTRAL WISCONSIN

CITY           SKY/WX    TMP DP  RH WIND       PRES   REMARKS
MANITOWISH WTR FLURRIES  29  29 100 SE17      29.87F WCI  17
6HR MIN TEMP:  27; 6HR MAX TEMP:  29;

ARBOR VITAE    FLURRIES  32  30  93 S16G26    29.89F WCI  21
6HR MIN TEMP:  29; 6HR MAX TEMP:  32;

WOODRUFF       FLURRIES  32  30  93 S16G26    29.89F WCI  21
6HR MIN TEMP:  29; 6HR MAX TEMP:  32;

RHINELANDER    FLURRIES  30  28  92 SE12G23   29.93F WCI  20
6HR MIN TEMP:  27; 6HR MAX TEMP:  30; 6HR PCP: TRACE;

EAGLE RIVER    LGT SNOW  29  28  96 SE9G18    29.92F WCI  21
6HR MIN TEMP:  26; 6HR MAX TEMP:  29;

LAND O LAKES   LGT SNOW  30  28  94 SE14G20   29.93F VSB 3/4 WCI  19
6HR MIN TEMP:  26; 6HR MAX TEMP:  30;

PHILLIPS       CLOUDY    30  28  90 SE10G23   29.85F WCI  21
6HR MIN TEMP:  29; 6HR MAX TEMP:  30;

TOMAHAWK       CLOUDY    30  27  88 SE6       29.92F WCI  24
6HR MIN TEMP:  28; 6HR MAX TEMP:  30;

MEDFORD        CLOUDY    30  27  86 SE15G21   29.88F WCI  19
6HR MIN TEMP:  29; 6HR MAX TEMP:  30;

MERRILL        CLOUDY    31  28  90 S9G16     29.96F WCI  23
6HR MIN TEMP:  29; 6HR MAX TEMP:  31;

$$

WIZ029-030-035-036-043>047-171300-
CENTRAL WISCONSIN

CITY           SKY/WX    TMP DP  RH WIND       PRES   REMARKS
WAUSAU         CLOUDY    31  27  85 SE17G25   29.96F WCI  19
6HR MIN TEMP:  29; 6HR MAX TEMP:  31;

MOSINEE        CLOUDY    30  28  93 SE16      29.98F WCI  19
MARSHFIELD     CLOUDY    32  26  78 SE20G25   29.91F WCI  20
6HR MIN TEMP:  31; 6HR MAX TEMP:  32;

STEVENS POINT  CLOUDY    31  28  91 SE10G17   29.99F WCI  22
6HR MIN TEMP:  29; 6HR MAX TEMP:  31;

WAUPACA        CLOUDY    35  30  82 SE9       30.04F WCI  28
6HR MIN TEMP:  34; 6HR MAX TEMP:  35;

WAUTOMA        CLOUDY    34  29  82 SE9       30.02F WCI  27
6HR MIN TEMP:  33; 6HR MAX TEMP:  34;

WISC RAPIDS    CLOUDY    33  28  81 SE10      29.99F WCI  25
6HR MIN TEMP:  32; 6HR MAX TEMP:  33;

CAMP DOUGLAS   CLOUDY    34  28  79 SE13      29.96F WCI  25
6HR MIN TEMP:  33; 6HR MAX TEMP:  34;

$$

WIZ011>013-019>022-031-037>040-048>050-171300-
NORTHEAST WISCONSIN

CITY           SKY/WX    TMP DP  RH WIND       PRES   REMARKS
ANTIGO         CLOUDY    29  28  94 SE16G23   29.98F WCI  18
6HR MIN TEMP:  27; 6HR MAX TEMP:  29;

SHAWANO        CLOUDY    34  30  86 SE6       30.05F WCI  29
6HR MIN TEMP:  32; 6HR MAX TEMP:  34;

OCONTO         CLOUDY    35  31  87 SE6       30.08F WCI  30
6HR MIN TEMP:  31; 6HR MAX TEMP:  35;

STURGEON BAY   NOT AVBL
GREEN BAY      CLOUDY    33  33 100 E3        30.09F
6HR MIN TEMP:  32; 6HR MAX TEMP:  34;

MANITOWOC      CLOUDY    39  36  89 S9        30.11F WCI  33
6HR MIN TEMP:  32; 6HR MAX TEMP:  39; 6HR PCP: TRACE;

APPLETON       CLOUDY    34  28  80 VRB5      30.06F WCI  30
CLINTONVILLE   CLOUDY    32  27  80 SE6       30.06F WCI  26
OSHKOSH        CLOUDY    35  30  82 S7        30.06F WCI  29
6HR MIN TEMP:  33; 6HR MAX TEMP:  35;

$$

WIZ032>034-041-042-053>061-171300-
SOUTHWEST WISCONSIN

CITY           SKY/WX    TMP DP  RH WIND       PRES   REMARKS
LA CROSSE      CLOUDY    37  29  72 SE12      29.90F WCI  29
6HR MIN TEMP:  36; 6HR MAX TEMP:  37;

SPARTA         CLOUDY    34  29  82 SE8       29.93F WCI  27
6HR MIN TEMP:  33; 6HR MAX TEMP:  34;

VIROQUA        CLOUDY    32  32  99 SE16      29.91F WCI  21
6HR MIN TEMP:  32; 6HR MAX TEMP:  32;

BOSCOBEL       CLOUDY    36  29  75 VRB5      29.97F WCI  32
6HR MIN TEMP:  35; 6HR MAX TEMP:  36;

PRAIRIE DU CHI CLOUDY    34  28  79 SE8G18    29.95F WCI  28
6HR MIN TEMP:  34; 6HR MAX TEMP:  35;

PLATTEVILLE    CLOUDY    33  32  96 SE15      29.99F WCI  23
6HR MIN TEMP:  32; 6HR MAX TEMP:  33;

$$

WIZ056-057-062-063-064-067-068-171300-
SOUTH CENTRAL WISCONSIN

CITY           SKY/WX    TMP DP  RH WIND       PRES   REMARKS
REEDSBURG      CLOUDY    33  28  83 SE7       29.99F WCI  27
6HR MIN TEMP:  32; 6HR MAX TEMP:  33;

BARABOO/DELLS  CLOUDY    33  28  81 SE17      29.98F WCI  22
6HR MIN TEMP:  32; 6HR MAX TEMP:  33;

LONE ROCK      CLOUDY    34  29  82 SE12      29.99F WCI  25
6HR MIN TEMP:  34; 6HR MAX TEMP:  35;

MINERAL POINT  CLOUDY    34  32  93 SE17G23   29.97F WCI  23
MADISON        CLOUDY    34  28  79 S18G29    30.03F WCI  23
6HR MIN TEMP:  33; 6HR MAX TEMP:  34;

MIDDLETON      CLOUDY    35  30  82 S12G21    30.02F WCI  26
6HR MIN TEMP:  35; 6HR MAX TEMP:  35;

WATERTOWN      CLOUDY    34  32  93 S5        30.07S WCI  30
6HR MIN TEMP:  32; 6HR MAX TEMP:  34;

MONROE         CLOUDY    32  30  93 SE21      30.00F WCI  20
JANESVILLE     CLOUDY    34  30  86 S15       30.07F WCI  24
$$

WIZ051-052-058>065-066-070>072-171300-
SOUTHEAST WISCONSIN

CITY           SKY/WX    TMP DP  RH WIND       PRES   REMARKS
MILWAUKEE      CLOUDY    37  31  78 S10       30.11F WCI  30
6HR MIN TEMP:  36; 6HR MAX TEMP:  38;

WAUKESHA       CLOUDY    32  28  86 SE8       30.10F WCI  25
MILWAUKEE/TIMM MOCLDY    34  28  80 S13       30.09F WCI  25
RACINE         PTCLDY    36  31  82 S9        30.13F WCI  29
6HR MIN TEMP:  35; 6HR MAX TEMP:  38;

BURLINGTON     CLOUDY    36  34  92 S9        30.10F WCI  29
6HR MIN TEMP:  36; 6HR MAX TEMP:  37;

KENOSHA        MOCLDY    36  29  75 S13       30.11F WCI  27
6HR MIN TEMP:  35; 6HR MAX TEMP:  37;

FOND DU LAC    CLOUDY    35  29  78 S9        30.07F WCI  28
6HR MIN TEMP:  33; 6HR MAX TEMP:  35;

SHEBOYGAN      CLOUDY    37  35  92 S6        30.09S WCI  32
6HR MIN TEMP:  32; 6HR MAX TEMP:  37;

WEST BEND      CLOUDY    34  32  93 S7        30.08F WCI  28
JUNEAU         CLOUDY    33  30  89 S10       30.07F WCI  25
6HR MIN TEMP:  32; 6HR MAX TEMP:  33;

$$

LSZ147-162-171300-
LAKE SUPERIOR

STATION/POSITION TIME  TEMP    WIND        PRES    WAVE
                       AIR SEA DIR/SP/G            HT/PER
                 (UTC) (F)     (DEG/KT/KT) (MB)    (FT/S)
DEVILS ISLAND    1200   36     170/  9/ 14 1010.2F
SAXON HARBOR     1140   35     180/  7/ 16 1008.5F
$$

LMZ867-665-643>646-171300-
LAKE MICHIGAN

STATION/POSITION TIME  TEMP    WIND        PRES    WAVE
                       AIR SEA DIR/SP/G            HT/PER
                 (UTC) (F)     (DEG/KT/KT) (MB)    (FT/S)
N MID LAKE BUOY  1150



USA.gov is the U.S. government's official web portal to all federal, state and local government web resources and services.